Tracking 33165 objects as of 7-Feb-2026
HD Live streaming from Space Station
objects crossing your sky now

KUIPER-00181

Track KUIPER-00181 now!
10-day predictions
KUIPER-00181 is classified as:


NORAD ID: 67137
Int'l Code: 2025-301E
Perigee: 530.3 km
Apogee: 549.1 km
Inclination: 51.9 °
Period: 95.3 minutes
Semi major axis: 6910 km
RCS: Unknown
Launch date: December 15, 2025
Source: United States (US)
Launch site: AIR FORCE EASTERN TEST RANGE (AFETR)
Your satellite tracking list
Your tracking list is empty




NASA's NSSDC Master Catalog

Two Line Element Set (TLE):
1 67137U 25301E   26038.58335648 -.01656277  00000-0 -10745+0 0  9998
2 67137  51.8795 212.6872 0013615 298.1774 221.8233 15.11190963  5836
Source of the keplerian elements: AFSPC